Regional Weather Roundup
Issued by NWS Green Bay, WI

Home | Current Version | Previous Version | Text Only | Print | Product List | Glossary On
Versions: 1 2 3 4 5 6 7 8 9 10 11 12 13 14 15 16 17 18 19 20 21 22 23 24 25 26 27 28 29 30 31 32 33 34 35 36 37 38 39 40 41 42 43 44 45 46 47 48 49 50
000
ASUS43 KGRB 240311
RWRGRB

NORTH-CENTRAL AND NORTHEAST WISCONSIN REGIONAL WEATHER ROUNDUP
NATIONAL WEATHER SERVICE GREEN BAY WI
1000 PM CDT TUE MAY 23 2017

WIZ005-009-010>012-018-019-240400-
NORTH CENTRAL WISCONSIN

CITY           SKY/WX    TMP DP  RH WIND       PRES   REMARKS
IRONWOOD       CLOUDY    46  42  86 N5        29.87R
MANITOWISH WTR CLOUDY    47  47  99 N3        29.83S
ARBOR VITAE    CLOUDY    52  47  83 NE6       29.81F
EAGLE RIVER    CLOUDY    49  42  77 NE10      29.82S
LAND O LAKES   CLOUDY    47  43  85 N10       29.84S
RHINELANDER    CLOUDY    51  45  79 VRB6      29.81S
PHILLIPS       CLOUDY    50  43  76 NE9       29.81S
ANTIGO         CLOUDY    50  45  84 E3        29.79S
TOMAHAWK       CLOUDY    50  43  77 N6        29.81S
MERRILL        DRIZZLE   53  48  83 NE5       29.79S
$$

WIZ013-073-240400-
NORTHEAST WISCONSIN

CITY           SKY/WX    TMP DP  RH WIND       PRES   REMARKS
IRON MOUNTAIN  CLOUDY    51  42  71 NE8       29.80S
MARINETTE      RAIN      51  48  89 NE12      29.79S
OCONTO         CLOUDY    50  49  96 CALM      29.79S
$$

WIZ017-030-035>037-045-240400-
CENTRAL WISCONSIN

CITY           SKY/WX    TMP DP  RH WIND       PRES   REMARKS
MEDFORD        DRIZZLE   50  45  81 NE8       29.78S
WAUSAU         LGT RAIN  51  48  89 CALM      29.77R
MOSINEE        LGT RAIN  50  46  87 CALM      29.79S
MARSHFIELD     CLOUDY    52  43  71 E8        29.77R
WISC RAPIDS    LGT RAIN  50  47  89 NE7       29.78S
STEVENS POINT  LGT RAIN  48  46  90 NE7       29.78F
WAUPACA        LGT RAIN  51  49  92 N3        29.77R
SHAWANO        RAIN      53  50  89 NE5       29.78F
CLINTONVILLE   LGT RAIN  48  46  93 NE6       29.77F
WAUTOMA        LGT RAIN  49  47  93 NE8       29.76S
$$

WIZ038-039-048-051-240400-
FOX VALLEY

CITY           SKY/WX    TMP DP  RH WIND       PRES   REMARKS
NWS GREEN BAY  LGT RAIN  51  50  96 NE12      29.77R
APPLETON       LGT RAIN  48  48 100 NE9       29.74F
OSHKOSH        LGT RAIN  50  47  89 NE9       29.74S
FOND DU LAC    LGT RAIN  50  46  86 NE7       29.74S
$$

WIZ022-050-052-240400-
EAST CENTRAL WISCONSIN

CITY           SKY/WX    TMP DP  RH WIND       PRES   REMARKS
EPHRAIM        LGT RAIN  47  47 100 NE8       29.79S
WASHINGTON ISL LGT RAIN  47  45  93 N10       29.78R
STURGEON BAY   LGT RAIN  50  49  96 N8          N/A
MANITOWOC      LGT RAIN  49  47  93 NE7       29.75F
SHEBOYGAN      LGT RAIN  48  48 100 NE10      29.73F
$$

LMZ563-521-522-541>543-240400-
LAKESHORE

STATION/POSITION TIME  TEMP    WIND        PRES    VSBY  WAVE
                       AIR SEA DIR/SP/G                  HT/PER
                 (UTC) (F)     (DEG/KT/KT) (MB)    (MI)  (FT/S)
SHEBOYGAN LKSHOR 0300   46      10/ 14/ 16 1007.0F
KEWAUNEE LKSHORE 0248   50      10/  6/ 11 1007.6F
NORTHPORT PIER   0240   48     340/  8/ 11 1008.8R
N MID LAKE BUOY  0150   43 39   40/  8/  8 1009.1          0
CHAMBERS ISLAND  0240   49     360/ 11/ 14 1008.5R
MENOMINEE LKSHOR 0248           10/ 10/ 11 1007.9R
$$




USA.gov is the U.S. government's official web portal to all federal, state and local government web resources and services.